Weather History for CYRB - November, 2012

Change the Weather History Date:

Saturday, November 3, 2012

  Actual Average Record
Temperature  
Mean Temperature 8 °F -  
Max Temperature 16 °F 1 °F 17 °F (1998)
Min Temperature 0 °F -5 °F -22 °F (2003)
Degree Days  
Heating Degree Days 57    
Moisture  
Dew Point 6 °F    
Average Humidity 75    
Maximum Humidity 79    
Minimum Humidity 65    
Precipitation  
Precipitation 0.08 in - - ()
Sea Level Pressure  
Sea Level Pressure 29.86 in    
Wind  
Wind Speed 13 mph ()    
Max Wind Speed 24 mph    
Max Gust Speed 31 mph    
Visibility 4.4 miles    
Events Snow    
Averages and records for this station are not official NWS values.
T = Trace of Precipitation, MM = Missing Value Source: Averaged Metar Reports

Daily Weather History Graph

Daily Weather History Graph

Search for Another Location

Airport or City:

Trip Planner

Search our weather history database for the weather conditions in past years. The results will help you decide how hot, cold, wet, or windy it might be!

Date:

Astronomy

Nov. 03, 2012 Rise Set
Actual Time 11:47 AM CDT 2:17 PM CDT
Civil Twilight 9:28 AM CDT 4:36 PM CDT
Nautical Twilight 7:45 AM CDT 6:19 PM CDT
Astronomical Twilight 6:13 AM CDT 7:50 PM CDT
Moon No Moon Rise No Moon Set
Length of Visible Light 7h 08m
Length of Day
2h 29m
Waning Gibbous, 80% of the Moon is Illuminated
Nov 3
Waning Gibbous
Nov 6
Last Quarter
Nov 13
New
Nov 20
First Quarter
Nov 28
Full

Hourly Weather History & Observations

Time (CDT) Temp. Windchill Dew Point Humidity Pressure Visibility Wind Dir Wind Speed Gust Speed Precip Events Conditions
12:00 AM 6.8 °F -8.6 °F -0.4 °F 72% 30.08 in 5.0 mi South 11.5 mph - N/A Snow Light Snow
1:00 AM 6 °F - -0 °F 65% 29.96 in 3 mi SSE 13.8 mph - - Snow Light Snow
1:00 AM 6.8 °F -10.0 °F -0.4 °F 72% 29.96 in 3.0 mi SSE 13.8 mph - N/A Snow Light Snow
2:00 AM 6.8 °F -11.3 °F -0.4 °F 72% 29.95 in 5.0 mi SSE 16.1 mph - N/A Snow Light Snow
3:00 AM 8.6 °F -5.5 °F 1.4 °F 73% 29.94 in 8.0 mi South 10.4 mph - N/A Snow Light Snow
4:00 AM 8.6 °F -6.3 °F 3.2 °F 79% 29.94 in 3.0 mi South 11.5 mph - N/A Snow Light Snow
5:00 AM 10.4 °F -4.8 °F 3.2 °F 73% 29.92 in 5.0 mi South 12.7 mph - N/A Snow Light Snow
5:47 AM - - - N/A% - 3.0 mi SSE 8.1 mph - N/A   Unknown
6:00 AM 10.4 °F -2.4 °F 5.0 °F 79% 29.91 in 4.0 mi SE 9.2 mph - N/A Snow Light Snow
7:00 AM 14 °F - 8 °F 66% 29.90 in 5 mi SW 8.1 mph - - Snow Light Snow
7:00 AM 14.0 °F 2.9 °F 8.6 °F 79% 29.90 in 5.0 mi SW 8.1 mph - N/A Snow Light Snow
8:00 AM 14.0 °F 2.9 °F 8.6 °F 79% 29.89 in 8.0 mi WSW 8.1 mph - N/A Snow Light Snow
9:00 AM 15.8 °F 2.1 °F 10.4 °F 79% 29.87 in 8.0 mi WSW 12.7 mph - N/A Snow Light Snow
10:00 AM 14.0 °F -0.2 °F 8.6 °F 79% 29.86 in 8.0 mi WSW 12.7 mph - N/A Snow Light Snow
11:00 AM 15.8 °F 2.1 °F 10.4 °F 79% 29.85 in 4.0 mi WSW 12.7 mph - N/A Snow Light Snow
12:00 PM 15.8 °F -0.2 °F 10.4 °F 79% 29.83 in 2.5 mi WSW 17.3 mph 23.0 mph N/A Snow Light Snow
12:34 PM - - - N/A% - 1.5 mi WSW 13.8 mph - N/A   Unknown
12:50 PM - - - N/A% - 4.0 mi WSW 12.7 mph - N/A   Unknown
1:00 PM 16 °F - 10 °F 68% 29.83 in 4 mi WSW 15.0 mph - - Snow Light Snow
1:00 PM 15.8 °F 0.9 °F 10.4 °F 79% 29.83 in 4.0 mi WSW 15.0 mph - N/A Snow Light Snow
1:35 PM - - - N/A% - 4.0 mi WSW 15.0 mph - N/A   Unknown
2:00 PM 15.8 °F -0.6 °F 8.6 °F 73% 29.81 in 4.0 mi WSW 18.4 mph - N/A Snow Light Snow
3:00 PM 15.8 °F 0.3 °F 8.6 °F 73% 29.81 in 4.0 mi WSW 16.1 mph - N/A Snow Light Snow
4:00 PM 15.8 °F 1.4 °F 8.6 °F 73% 29.80 in 3.0 mi SW 13.8 mph - N/A Snow Light Snow
5:00 PM 15.8 °F -1.1 °F 8.6 °F 73% 29.79 in 2.5 mi WSW 19.6 mph - N/A Snow Light Snow
6:00 PM 15.8 °F -0.6 °F 8.6 °F 73% 29.78 in 4.0 mi WSW 18.4 mph - N/A Snow Light Snow
7:00 PM 14 °F - 8 °F 66% 29.78 in 4 mi SW 21.9 mph - - Snow Light Snow
7:00 PM 14.0 °F -3.9 °F 8.6 °F 79% 29.78 in 4.0 mi SW 20.7 mph - N/A Snow Light Snow
7:54 PM - - - N/A% - 1.5 mi WSW 23.0 mph - N/A   Unknown
8:00 PM 12.2 °F -7.5 °F 6.8 °F 79% 29.77 in 1.5 mi WSW 24.2 mph 31.1 mph N/A Snow Light Snow
8:44 PM - - - N/A% - 4.0 mi SW 19.6 mph - N/A   Unknown
9:00 PM 12.2 °F -6.7 °F 5.0 °F 73% 29.77 in 1.2 mi SW 21.9 mph - N/A Snow Light Snow
9:28 PM - - - N/A% - 4.0 mi SW 17.3 mph - N/A   Unknown
10:00 PM 10.4 °F -7.2 °F 5.0 °F 79% 29.75 in 9.0 mi SW 17.3 mph - N/A Snow Light Snow
11:00 PM 10.4 °F -6.0 °F 5.0 °F 79% 29.74 in 10.0 mi SW 15.0 mph - N/A Snow Light Snow